,,PA_Meas_PMT16A,,PR_Meas_QMR101_102,,RH_Meas_QMH101,,SR_Meas_QMS101,,TA_Meas_QMH101,,GenWind,,GenWind,
time,status,PA,status,PR,status,RH,status,SR,status,TA,status,DirAvg,status,SpdAvg,
2015-01-07, 00:00:04,VALID,917.584,VALID,0,VALID,97.069,VALID,0,VALID,19.7808,VALID,329,VALID,0,
2015-01-07, 00:01:04,VALID,917.597,VALID,0,VALID,97.069,VALID,0,VALID,19.8003,VALID,329,VALID,0,
2015-01-07, 00:02:04,VALID,917.591,VALID,0,VALID,97.0537,VALID,0,VALID,19.7613,VALID,329,VALID,0,
2015-01-07, 00:03:04,VALID,917.604,VALID,0,VALID,97.0385,VALID,0,VALID,19.7028,VALID,329,VALID,0,
2015-01-07, 00:04:04,VALID,917.577,VALID,0,VALID,97.1071,VALID,0,VALID,19.7433,VALID,329,VALID,0,
2015-01-07, 00:05:04,VALID,917.567,VALID,0,VALID,97.0385,VALID,0,VALID,19.5858,VALID,337,VALID,0,
2015-01-07, 00:06:04,VALID,917.575,VALID,0,VALID,96.947,VALID,0,VALID,19.5288,VALID,343,VALID,0,
2015-01-07, 00:07:04,VALID,917.523,VALID,0,VALID,97.0842,VALID,0,VALID,19.5678,VALID,351,VALID,0,
2015-01-07, 00:08:04,VALID,917.529,VALID,0,VALID,97.1223,VALID,0,VALID,19.5093,VALID,351,VALID,0,
2015-01-07, 00:09:04,VALID,917.558,VALID,0,VALID,97.1986,VALID,0,VALID,19.5093,VALID,351,VALID,0,
2015-01-07, 00:10:04,VALID,917.503,VALID,0,VALID,97.2672,VALID,0,VALID,19.5483,VALID,351,VALID,0,
2015-01-07, 00:11:04,VALID,917.517,VALID,0,VALID,97.29,VALID,0,VALID,19.5288,VALID,351,VALID,0,
2015-01-07, 00:12:04,VALID,917.531,VALID,0,VALID,97.3053,VALID,0,VALID,19.4883,VALID,351,VALID,0,
2015-01-07, 00:13:04,VALID,917.506,VALID,0,VALID,97.3053,VALID,0,VALID,19.4493,VALID,351,VALID,0,
2015-01-07, 00:14:04,VALID,917.496,VALID,0,VALID,97.3129,VALID,0,VALID,19.4703,VALID,351,VALID,0,
2015-01-07, 00:15:04,VALID,917.467,VALID,0,VALID,97.3434,VALID,0,VALID,19.4703,VALID,351,VALID,0,
2015-01-07, 00:16:04,VALID,917.462,VALID,0,VALID,97.3586,VALID,0,VALID,19.4508,VALID,351,VALID,0,
2015-01-07, 00:17:04,VALID,917.458,VALID,0,VALID,97.3815,VALID,0,VALID,19.4508,VALID,351,VALID,0,
2015-01-07, 00:18:04,VALID,917.435,VALID,0,VALID,97.3968,VALID,0,VALID,19.4103,VALID,351,VALID,0,
2015-01-07, 00:19:04,VALID,917.461,VALID,0,VALID,97.4044,VALID,0,VALID,19.4103,VALID,351,VALID,0,
2015-01-07, 00:20:04,VALID,917.453,VALID,0,VALID,97.4273,VALID,0,VALID,19.4298,VALID,351,VALID,0,
2015-01-07, 00:21:04,VALID,917.429,VALID,0,VALID,97.4654,VALID,0,VALID,19.4883,VALID,351,VALID,0,
2015-01-07, 00:22:04,VALID,917.445,VALID,0,VALID,97.4577,VALID,0,VALID,19.4493,VALID,351,VALID,0,
2015-01-07, 00:23:04,VALID,917.444,VALID,0,VALID,97.4654,VALID,0,VALID,19.4508,VALID,351,VALID,0,
2015-01-07, 00:24:04,VALID,917.448,VALID,0,VALID,97.4577,VALID,0,VALID,19.4103,VALID,351,VALID,0,
2015-01-07, 00:25:04,VALID,917.415,VALID,0,VALID,97.4501,VALID,0,VALID,19.3908,VALID,351,VALID,0,
2015-01-07, 00:26:04,VALID,917.407,VALID,0,VALID,97.4425,VALID,0.107441,VALID,19.3908,VALID,351,VALID,0,
2015-01-07, 00:27:04,VALID,917.407,VALID,0,VALID,97.4273,VALID,0,VALID,19.3713,VALID,351,VALID,0,
2015-01-07, 00:28:04,VALID,917.456,VALID,0,VALID,97.4273,VALID,0,VALID,19.3923,VALID,350,VALID,0,
2015-01-07, 00:29:04,VALID,917.435,VALID,0,VALID,97.4425,VALID,0,VALID,19.3923,VALID,329,VALID,0,
2015-01-07, 00:30:04,VALID,917.417,VALID,0,VALID,97.4273,VALID,0,VALID,19.3518,VALID,329,VALID,0,
2015-01-07, 00:31:04,VALID,917.438,VALID,0,VALID,97.4273,VALID,0,VALID,19.3923,VALID,329,VALID,0,
2015-01-07, 00:32:04,VALID,917.435,VALID,0,VALID,97.4577,VALID,0,VALID,19.4313,VALID,329,VALID,0,
2015-01-07, 00:33:04,VALID,917.44,VALID,0,VALID,97.473,VALID,0,VALID,19.4103,VALID,329,VALID,0,
2015-01-07, 00:34:04,VALID,917.387,VALID,0,VALID,97.5035,VALID,0,VALID,19.4703,VALID,329,VALID,0,
2015-01-07, 00:35:04,VALID,917.382,VALID,0,VALID,97.5111,VALID,0,VALID,19.4493,VALID,329,VALID,0,
2015-01-07, 00:36:04,VALID,917.381,VALID,0,VALID,97.5187,VALID,0,VALID,19.4703,VALID,329,VALID,0,
2015-01-07, 00:37:04,VALID,917.394,VALID,0,VALID,97.5416,VALID,0,VALID,19.4298,VALID,329,VALID,0,
2015-01-07, 00:38:04,VALID,917.423,VALID,0,VALID,97.5111,VALID,0,VALID,19.4703,VALID,329,VALID,0,
2015-01-07, 00:39:04,VALID,917.373,VALID,0,VALID,97.4882,VALID,0,VALID,19.4508,VALID,329,VALID,0,
2015-01-07, 00:40:04,VALID,917.361,VALID,0,VALID,97.4806,VALID,0,VALID,19.4898,VALID,329,VALID,0,
2015-01-07, 00:41:04,VALID,917.338,VALID,0,VALID,97.473,VALID,0,VALID,19.4703,VALID,3,VALID,0,
2015-01-07, 00:42:04,VALID,917.337,VALID,0,VALID,97.4349,VALID,0,VALID,19.4508,VALID,3,VALID,0,
2015-01-07, 00:43:04,VALID,917.321,VALID,0,VALID,97.3968,VALID,0,VALID,19.4703,VALID,3,VALID,0,
2015-01-07, 00:44:04,VALID,917.291,VALID,0,VALID,97.351,VALID,0,VALID,19.4703,VALID,2,VALID,0,
2015-01-07, 00:45:04,VALID,917.315,VALID,0,VALID,97.3281,VALID,0,VALID,19.4688,VALID,2,VALID,0,
2015-01-07, 00:46:04,VALID,917.294,VALID,0,VALID,97.2748,VALID,0,VALID,19.4688,VALID,2,VALID,0,
2015-01-07, 00:47:04,VALID,917.283,VALID,0,VALID,97.2595,VALID,0,VALID,19.5093,VALID,2,VALID,0,
2015-01-07, 00:48:04,VALID,917.229,VALID,0,VALID,97.2214,VALID,0,VALID,19.5288,VALID,2,VALID,0,
2015-01-07, 00:49:04,VALID,917.227,VALID,0,VALID,97.1376,VALID,0,VALID,19.5483,VALID,2,VALID,0,
2015-01-07, 00:50:04,VALID,917.207,VALID,0,VALID,97.0766,VALID,0,VALID,19.5873,VALID,330,VALID,0,
2015-01-07, 00:51:04,VALID,917.164,VALID,0,VALID,97.008,VALID,0,VALID,19.6653,VALID,326,VALID,0,
2015-01-07, 07:27:04,VALID,917.666,VALID,0,VALID,92.2205,VALID,71.0186,VALID,20.2098,VALID,243,VALID,0,
2015-01-07, 07:28:04,VALID,919.208,VALID,0,VALID,92.4187,VALID,72.2005,VALID,20.2309,VALID,272,VALID,0,
2015-01-07, 07:29:04,VALID,919.775,VALID,0,VALID,92.777,VALID,73.9195,VALID,20.2504,VALID,272,VALID,0,
2015-01-07, 07:30:04,VALID,919.483,VALID,0,VALID,93.1886,VALID,75.3162,VALID,20.2504,VALID,272,VALID,0,
2015-01-07, 07:31:04,VALID,920.278,VALID,0,VALID,93.4783,VALID,76.713,VALID,20.2894,VALID,272,VALID,0,
2015-01-07, 07:32:04,VALID,918.655,VALID,0,VALID,93.5088,VALID,78.0023,VALID,20.3089,VALID,272,VALID,0,
2015-01-07, 07:33:04,VALID,918.776,VALID,0,VALID,93.4097,VALID,79.2916,VALID,20.3269,VALID,272,VALID,0,
2015-01-07, 07:34:04,VALID,919.348,VALID,0,VALID,92.9904,VALID,80.5809,VALID,20.3674,VALID,272,VALID,0,
2015-01-07, 07:35:04,VALID,919.935,VALID,0,VALID,92.6245,VALID,81.8702,VALID,20.4064,VALID,273,VALID,0,
2015-01-07, 07:36:04,VALID,919.888,VALID,0,VALID,92.0832,VALID,82.2999,VALID,20.3854,VALID,272,VALID,0,
2015-01-07, 07:37:04,VALID,918.693,VALID,0,VALID,92.0299,VALID,82.7297,VALID,20.4049,VALID,273,VALID,0,
2015-01-07, 07:38:04,VALID,919.453,VALID,0,VALID,91.8545,VALID,83.9115,VALID,20.4259,VALID,272,VALID,0,
2015-01-07, 07:39:04,VALID,918.244,VALID,0,VALID,91.5877,VALID,85.5232,VALID,20.4259,VALID,272,VALID,0,
2015-01-07, 07:40:04,VALID,919.02,VALID,0,VALID,91.664,VALID,87.9943,VALID,20.4244,VALID,272,VALID,0,
2015-01-07, 07:41:04,VALID,918.686,VALID,0,VALID,91.3666,VALID,91.8622,VALID,20.4634,VALID,273,VALID,0,
2015-01-07, 07:42:04,VALID,918.043,VALID,0,VALID,91.6335,VALID,97.664,VALID,20.465,VALID,272,VALID,0,
2015-01-07, 07:43:04,VALID,917.903,VALID,0,VALID,91.9994,VALID,104.54,VALID,20.504,VALID,272,VALID,0,
2015-01-07, 07:44:04,VALID,917.87,VALID,0,VALID,91.9536,VALID,118.722,VALID,20.5024,VALID,272,VALID,0,
2015-01-07, 07:45:04,VALID,917.847,VALID,0,VALID,92.1442,VALID,126.243,VALID,20.5625,VALID,273,VALID,0,
2015-01-07, 07:46:04,VALID,917.864,VALID,0,VALID,92.2814,VALID,145.475,VALID,20.5804,VALID,285,VALID,0,
2015-01-07, 07:47:04,VALID,917.895,VALID,0,VALID,92.5025,VALID,140.963,VALID,20.639,VALID,285,VALID,0,
2015-01-07, 07:48:04,VALID,917.903,VALID,0,VALID,92.4339,VALID,123.128,VALID,20.717,VALID,285,VALID,0,
2015-01-07, 07:49:04,VALID,917.922,VALID,0,VALID,91.9918,VALID,114.962,VALID,20.7755,VALID,285,VALID,0,
2015-01-07, 07:50:04,VALID,917.953,VALID,0,VALID,90.3832,VALID,100.995,VALID,20.7755,VALID,20,VALID,0,
2015-01-07, 07:51:04,VALID,918.137,VALID,0,VALID,90.0554,VALID,97.4491,VALID,20.8145,VALID,20,VALID,0,
2015-01-07, 07:52:04,VALID,918.166,VALID,0,VALID,89.2702,VALID,98.7384,VALID,20.795,VALID,287,VALID,0,
2015-01-07, 07:53:04,VALID,918.078,VALID,0,VALID,88.7366,VALID,98.4161,VALID,20.756,VALID,282,VALID,0,
2015-01-07, 07:54:04,VALID,918.097,VALID,0,VALID,89.0796,VALID,98.9533,VALID,20.7755,VALID,284,VALID,0,
2015-01-07, 07:55:04,VALID,918.004,VALID,0,VALID,89.7505,VALID,101.21,VALID,20.8145,VALID,337,VALID,0,
2015-01-07, 07:56:04,VALID,918.004,VALID,0,VALID,89.4074,VALID,102.499,VALID,20.834,VALID,338,VALID,0,
2015-01-07, 07:57:04,VALID,918.017,VALID,0,VALID,89.072,VALID,102.714,VALID,20.834,VALID,338,VALID,0,
2015-01-07, 07:58:04,VALID,918.02,VALID,0,VALID,89.5599,VALID,105.83,VALID,20.8925,VALID,338,VALID,0,
2015-01-07, 07:59:04,VALID,917.992,VALID,0,VALID,89.6666,VALID,107.871,VALID,20.9316,VALID,338,VALID,0,
2015-01-07, 08:00:04,VALID,918.025,VALID,0,VALID,89.011,VALID,110.987,VALID,20.9706,VALID,338,VALID,0,
2015-01-07, 08:01:04,VALID,918.011,VALID,0,VALID,89.3236,VALID,113.78,VALID,21.0486,VALID,338,VALID,0,
2015-01-07, 08:02:04,VALID,918.004,VALID,0,VALID,89.0949,VALID,114.962,VALID,21.047,VALID,338,VALID,0,
2015-01-07, 08:03:04,VALID,918.008,VALID,0,VALID,88.6146,VALID,116.144,VALID,21.0681,VALID,338,VALID,0,
2015-01-07, 08:04:04,VALID,918.012,VALID,0,VALID,88.8509,VALID,118.185,VALID,21.086,VALID,338,VALID,0,
2015-01-07, 08:05:04,VALID,918.016,VALID,0,VALID,87.5702,VALID,116.789,VALID,21.0665,VALID,354,VALID,0,
2015-01-07, 08:06:04,VALID,918.006,VALID,0,VALID,87.2576,VALID,118.293,VALID,21.0681,VALID,8,VALID,0,
2015-01-07, 08:07:04,VALID,918.02,VALID,0,VALID,87.2195,VALID,119.797,VALID,21.0307,VALID,11,VALID,0,
2015-01-07, 08:08:04,VALID,918.038,VALID,0,VALID,88.0809,VALID,121.946,VALID,21.0275,VALID,11,VALID,0,
2015-01-07, 08:09:04,VALID,918.076,VALID,0,VALID,88.7671,VALID,127.103,VALID,21.0275,VALID,11,VALID,0,
2015-01-07, 08:10:04,VALID,918.067,VALID,0,VALID,88.95,VALID,132.582,VALID,21.0681,VALID,11,VALID,0,
2015-01-07, 08:11:04,VALID,918.097,VALID,0,VALID,88.6527,VALID,134.731,VALID,21.0681,VALID,359,VALID,0,
2015-01-07, 08:12:04,VALID,918.127,VALID,0,VALID,88.8814,VALID,136.128,VALID,21.0291,VALID,315,VALID,0,
2015-01-07, 08:13:04,VALID,918.121,VALID,0,VALID,89.2931,VALID,137.417,VALID,21.0291,VALID,315,VALID,0,
2015-01-07, 08:14:04,VALID,918.105,VALID,0,VALID,88.9576,VALID,138.169,VALID,21.0307,VALID,315,VALID,0,
2015-01-07, 08:15:04,VALID,918.12,VALID,0,VALID,89.2168,VALID,140.318,VALID,21.0291,VALID,328,VALID,0,
2015-01-07, 08:16:04,VALID,918.114,VALID,0,VALID,89.6895,VALID,143.434,VALID,21.0486,VALID,16,VALID,0,
2015-01-07, 08:17:04,VALID,918.104,VALID,0,VALID,89.415,VALID,146.872,VALID,21.0876,VALID,353,VALID,0,
2015-01-07, 08:18:04,VALID,918.093,VALID,0,VALID,87.9361,VALID,148.913,VALID,21.0486,VALID,348,VALID,0.350391,
2015-01-07, 08:19:04,VALID,918.11,VALID,0,VALID,88.2563,VALID,148.806,VALID,21.0486,VALID,341,VALID,0,
2015-01-07, 08:20:04,VALID,918.078,VALID,0,VALID,89.0491,VALID,148.806,VALID,21.0681,VALID,28,VALID,0,
2015-01-07, 08:21:04,VALID,918.087,VALID,0,VALID,89.3769,VALID,151.385,VALID,21.1071,VALID,336,VALID,0,
2015-01-07, 08:22:04,VALID,918.099,VALID,0,VALID,89.5218,VALID,155.897,VALID,21.0681,VALID,281,VALID,0,
2015-01-07, 08:23:04,VALID,918.117,VALID,0,VALID,89.7581,VALID,162.558,VALID,21.0486,VALID,283,VALID,0,
2015-01-07, 08:24:04,VALID,918.133,VALID,0,VALID,89.1254,VALID,168.468,VALID,21.0486,VALID,328,VALID,0,
2015-01-07, 08:25:04,VALID,918.158,VALID,0,VALID,89.2931,VALID,172.98,VALID,21.0681,VALID,326,VALID,0,
2015-01-07, 08:26:04,VALID,918.162,VALID,0,VALID,89.255,VALID,177.063,VALID,21.0876,VALID,11,VALID,0.321094,
2015-01-07, 08:27:04,VALID,918.168,VALID,0,VALID,88.2868,VALID,180.071,VALID,21.0876,VALID,2,VALID,0,
2015-01-07, 08:28:04,VALID,918.196,VALID,0,VALID,88.2944,VALID,182.005,VALID,21.1461,VALID,338,VALID,0.825391,
2015-01-07, 08:30:04,VALID,918.182,VALID,0,VALID,88.5231,VALID,188.344,VALID,21.1836,VALID,332,VALID,0,
2015-01-07, 08:31:04,VALID,918.191,VALID,0,VALID,88.7975,VALID,195.435,VALID,21.2226,VALID,337,VALID,0.55,
2015-01-07, 08:32:04,VALID,918.169,VALID,0,VALID,88.4392,VALID,203.923,VALID,21.2226,VALID,352,VALID,0.497656,
2015-01-07, 08:33:04,VALID,918.141,VALID,0,VALID,88.6527,VALID,212.733,VALID,21.2616,VALID,337,VALID,0,
2015-01-07, 08:34:04,VALID,918.181,VALID,0,VALID,88.546,VALID,220.577,VALID,21.3006,VALID,332,VALID,0,
2015-01-07, 08:35:04,VALID,918.137,VALID,0,VALID,87.898,VALID,224.874,VALID,21.3201,VALID,352,VALID,0.802344,
2015-01-07, 08:36:04,VALID,918.151,VALID,0,VALID,88.5841,VALID,227.99,VALID,21.3396,VALID,318,VALID,0.0140625,
2015-01-07, 08:37:04,VALID,918.17,VALID,0,VALID,88.6832,VALID,232.073,VALID,21.3786,VALID,304,VALID,0,
2015-01-07, 08:38:04,VALID,918.16,VALID,0,VALID,88.9424,VALID,237.015,VALID,21.3981,VALID,304,VALID,0,
2015-01-07, 08:39:04,VALID,918.166,VALID,0,VALID,88.6908,VALID,232.395,VALID,21.3803,VALID,257,VALID,0.0121094,
2015-01-07, 08:40:04,VALID,918.149,VALID,0,VALID,89.8725,VALID,232.718,VALID,21.3981,VALID,333,VALID,0,
2015-01-07, 08:41:04,VALID,918.16,VALID,0,VALID,90.1316,VALID,234.437,VALID,21.4567,VALID,20,VALID,0,
2015-01-07, 08:42:04,VALID,918.169,VALID,0,VALID,90.0783,VALID,239.271,VALID,21.4567,VALID,351,VALID,0,
2015-01-07, 08:43:04,VALID,918.204,VALID,0,VALID,89.2778,VALID,238.627,VALID,21.4567,VALID,264,VALID,0,
2015-01-07, 08:44:04,VALID,918.171,VALID,0,VALID,89.0796,VALID,246.47,VALID,21.5152,VALID,231,VALID,0,
2015-01-07, 08:45:04,VALID,918.19,VALID,0,VALID,88.8052,VALID,246.148,VALID,21.6128,VALID,25,VALID,0,
2015-01-07, 08:46:04,VALID,918.158,VALID,0,VALID,89.7124,VALID,247.007,VALID,21.7688,VALID,14,VALID,0,
2015-01-07, 08:47:04,VALID,918.152,VALID,0,VALID,88.668,VALID,257.966,VALID,21.8079,VALID,3,VALID,0.0285156,
2015-01-07, 08:48:04,VALID,918.155,VALID,0,VALID,87.4101,VALID,249.049,VALID,21.8079,VALID,351,VALID,0.574219,
2015-01-07, 08:49:04,VALID,918.191,VALID,0,VALID,87.4177,VALID,239.057,VALID,21.8664,VALID,12,VALID,0,
2015-01-07, 08:50:04,VALID,918.195,VALID,0,VALID,86.8155,VALID,232.932,VALID,21.9233,VALID,329,VALID,0,
2015-01-07, 08:51:04,VALID,918.179,VALID,0,VALID,86.015,VALID,229.817,VALID,22.0225,VALID,329,VALID,0,
2015-01-07, 08:52:04,VALID,918.201,VALID,0,VALID,85.9388,VALID,228.957,VALID,22.1379,VALID,326,VALID,0,
2015-01-07, 08:53:04,VALID,918.199,VALID,0,VALID,84.2921,VALID,231.643,VALID,22.2176,VALID,290,VALID,0,
2015-01-07, 08:54:04,VALID,918.218,VALID,0,VALID,83.9872,VALID,236.585,VALID,22.2567,VALID,290,VALID,0,
2015-01-07, 08:55:04,VALID,918.196,VALID,0,VALID,84.1091,VALID,242.172,VALID,22.255,VALID,267,VALID,0,
2015-01-07, 08:56:04,VALID,918.246,VALID,0,VALID,83.3316,VALID,246.792,VALID,22.1964,VALID,292,VALID,0,
2015-01-07, 08:57:04,VALID,918.254,VALID,0,VALID,84.3302,VALID,248.511,VALID,22.1769,VALID,292,VALID,0,
2015-01-07, 08:58:04,VALID,918.269,VALID,0,VALID,86.3199,VALID,248.941,VALID,22.1947,VALID,18,VALID,0,
2015-01-07, 08:59:04,VALID,918.251,VALID,0,VALID,86.9451,VALID,249.586,VALID,22.255,VALID,25,VALID,0,
2015-01-07, 09:00:04,VALID,918.268,VALID,0,VALID,86.0684,VALID,250.875,VALID,22.255,VALID,359,VALID,0.0777344,
2015-01-07, 09:01:04,VALID,918.299,VALID,0,VALID,86.3581,VALID,252.057,VALID,22.255,VALID,327,VALID,0,
2015-01-07, 09:02:04,VALID,918.273,VALID,0,VALID,84.8258,VALID,251.735,VALID,22.2354,VALID,357,VALID,0.176953,
2015-01-07, 09:03:04,VALID,918.287,VALID,0,VALID,83.4917,VALID,250.66,VALID,22.1769,VALID,355,VALID,0.214453,
2015-01-07, 09:04:04,VALID,918.288,VALID,0,VALID,82.0432,VALID,248.619,VALID,22.1184,VALID,19,VALID,1.69922,
2015-01-07, 09:05:04,VALID,918.258,VALID,0,VALID,82.5006,VALID,246.792,VALID,22.0208,VALID,18,VALID,0.0289063,
2015-01-07, 09:06:04,VALID,918.259,VALID,0,VALID,83.4612,VALID,247.437,VALID,21.9801,VALID,18,VALID,0.592578,
2015-01-07, 09:07:04,VALID,918.283,VALID,0,VALID,84.1701,VALID,249.586,VALID,21.9818,VALID,350,VALID,0.479688,
2015-01-07, 09:08:04,VALID,918.273,VALID,0,VALID,84.7648,VALID,259.148,VALID,21.9801,VALID,22,VALID,0.0289063,
2015-01-07, 09:09:04,VALID,918.33,VALID,0,VALID,85.9007,VALID,255.388,VALID,21.9801,VALID,318,VALID,0.837109,
2015-01-07, 09:10:04,VALID,918.348,VALID,0,VALID,84.902,VALID,255.925,VALID,21.9411,VALID,20,VALID,0.1125,
2015-01-07, 09:11:04,VALID,918.334,VALID,0,VALID,84.9401,VALID,258.718,VALID,22.0191,VALID,353,VALID,0,
2015-01-07, 09:12:04,VALID,918.352,VALID,0,VALID,85.5881,VALID,263.016,VALID,22.1769,VALID,1,VALID,0,
2015-01-07, 09:13:04,VALID,918.359,VALID,0,VALID,85.2145,VALID,260.008,VALID,22.2923,VALID,16,VALID,0.7875,
2015-01-07, 09:14:04,VALID,918.373,VALID,0,VALID,84.1701,VALID,260.437,VALID,22.3508,VALID,345,VALID,0.0195313,
2015-01-07, 09:15:04,VALID,918.346,VALID,0,VALID,84.7953,VALID,260.76,VALID,22.4891,VALID,48,VALID,0.189844,
2015-01-07, 09:16:04,VALID,918.35,VALID,0,VALID,84.0405,VALID,257.536,VALID,22.5264,VALID,32,VALID,0,
2015-01-07, 09:17:04,VALID,918.361,VALID,0,VALID,82.0584,VALID,252.379,VALID,22.6045,VALID,31,VALID,0,
2015-01-07, 09:18:04,VALID,918.35,VALID,0,VALID,82.31,VALID,253.991,VALID,22.6435,VALID,31,VALID,0,
2015-01-07, 09:19:04,VALID,918.348,VALID,0,VALID,82.5921,VALID,252.272,VALID,22.624,VALID,339,VALID,0,
2015-01-07, 09:20:04,VALID,918.341,VALID,0,VALID,82.1271,VALID,242.924,VALID,22.6045,VALID,356,VALID,0,
2015-01-07, 09:21:04,VALID,918.345,VALID,0,VALID,82.4549,VALID,240.883,VALID,22.6825,VALID,9,VALID,0,
2015-01-07, 09:22:04,VALID,918.335,VALID,0,VALID,80.2822,VALID,239.809,VALID,22.7801,VALID,312,VALID,0,
2015-01-07, 09:23:04,VALID,918.277,VALID,0,VALID,78.605,VALID,239.701,VALID,22.624,VALID,280,VALID,1.15391,
2015-01-07, 09:24:04,VALID,918.247,VALID,0,VALID,81.5782,VALID,241.743,VALID,22.4874,VALID,3,VALID,0.887109,
2015-01-07, 09:25:04,VALID,918.285,VALID,0,VALID,82.836,VALID,250.23,VALID,22.4467,VALID,340,VALID,0,
2015-01-07, 09:26:04,VALID,918.298,VALID,0,VALID,83.2782,VALID,254.313,VALID,22.4679,VALID,360,VALID,0.059375,
2015-01-07, 09:27:04,VALID,918.288,VALID,0,VALID,81.3495,VALID,252.809,VALID,22.5069,VALID,11,VALID,0.217969,
2015-01-07, 09:28:04,VALID,918.281,VALID,0,VALID,82.5235,VALID,256.784,VALID,22.5655,VALID,29,VALID,0.00585938,
2015-01-07, 09:29:04,VALID,918.227,VALID,0,VALID,83.2782,VALID,260.867,VALID,22.663,VALID,15,VALID,0.359375,
2015-01-07, 09:30:04,VALID,918.24,VALID,0,VALID,82.432,VALID,265.487,VALID,22.6843,VALID,9,VALID,1.7457,
2015-01-07, 09:31:04,VALID,918.22,VALID,0,VALID,80.7243,VALID,273.867,VALID,22.5655,VALID,356,VALID,2.26445,
2015-01-07, 09:32:04,VALID,918.263,VALID,0,VALID,80.793,VALID,281.818,VALID,22.5281,VALID,360,VALID,1.19766,
2015-01-07, 09:33:04,VALID,918.252,VALID,0,VALID,82.5159,VALID,287.62,VALID,22.5069,VALID,15,VALID,1.58984,
2015-01-07, 09:34:04,VALID,918.262,VALID,0,VALID,82.5692,VALID,298.901,VALID,22.5477,VALID,11,VALID,1.41797,
2015-01-07, 09:35:04,VALID,918.274,VALID,0,VALID,82.4396,VALID,320.175,VALID,22.5655,VALID,342,VALID,0.30625,
2015-01-07, 09:36:04,VALID,918.268,VALID,0,VALID,80.8844,VALID,340.911,VALID,22.5477,VALID,357,VALID,1.35234,
2015-01-07, 09:37:04,VALID,918.272,VALID,0,VALID,80.1907,VALID,350.151,VALID,22.5264,VALID,351,VALID,1.54102,
2015-01-07, 09:38:04,VALID,918.241,VALID,0,VALID,81.2732,VALID,353.911,VALID,22.5477,VALID,11,VALID,2.70273,
2015-01-07, 09:39:04,VALID,918.292,VALID,0,VALID,83.3544,VALID,352.622,VALID,22.585,VALID,355,VALID,0.310156,
2015-01-07, 09:40:04,VALID,918.275,VALID,0,VALID,81.6544,VALID,354.771,VALID,22.7038,VALID,4,VALID,1.92773,
2015-01-07, 09:41:04,VALID,918.319,VALID,0,VALID,82.3405,VALID,353.052,VALID,22.7216,VALID,358,VALID,1.18984,
2015-01-07, 09:42:04,VALID,918.321,VALID,0,VALID,81.8679,VALID,350.903,VALID,22.7411,VALID,354,VALID,1.38203,
2015-01-07, 09:43:04,VALID,918.304,VALID,0,VALID,80.5261,VALID,351.44,VALID,22.7216,VALID,360,VALID,2.53633,
2015-01-07, 09:44:04,VALID,918.289,VALID,0,VALID,82.9885,VALID,351.44,VALID,22.6843,VALID,19,VALID,1.45352,
2015-01-07, 09:45:04,VALID,918.297,VALID,0,VALID,81.784,VALID,351.44,VALID,22.6825,VALID,357,VALID,1.46445,
2015-01-07, 09:46:04,VALID,918.346,VALID,0,VALID,82.0737,VALID,353.481,VALID,22.663,VALID,359,VALID,1.59414,
2015-01-07, 09:47:04,VALID,918.349,VALID,0,VALID,80.671,VALID,359.068,VALID,22.663,VALID,12,VALID,0.167578,
2015-01-07, 09:48:04,VALID,918.369,VALID,0,VALID,81.0674,VALID,360.573,VALID,22.6825,VALID,9,VALID,0.465625,
2015-01-07, 09:49:04,VALID,918.338,VALID,0,VALID,83.3849,VALID,368.738,VALID,22.7801,VALID,24,VALID,0.363281,
2015-01-07, 09:50:04,VALID,918.342,VALID,0,VALID,83.0038,VALID,363.688,VALID,22.8972,VALID,18,VALID,0.0441406,
2015-01-07, 09:51:04,VALID,918.29,VALID,0,VALID,79.3445,VALID,373.573,VALID,22.9557,VALID,19,VALID,2.96641,
2015-01-07, 09:52:04,VALID,918.306,VALID,0,VALID,79.4741,VALID,366.159,VALID,22.9753,VALID,3,VALID,1.60234,
2015-01-07, 09:53:04,VALID,918.297,VALID,0,VALID,80.8235,VALID,338.44,VALID,23.0338,VALID,22,VALID,1.54102,
2015-01-07, 09:54:04,VALID,918.314,VALID,0,VALID,80.2898,VALID,355.738,VALID,23.1119,VALID,309,VALID,0.428125,
2015-01-07, 09:55:04,VALID,918.306,VALID,0,VALID,80.4804,VALID,373.788,VALID,23.1119,VALID,309,VALID,0.0148437,
2015-01-07, 09:56:04,VALID,918.277,VALID,0,VALID,80.023,VALID,370.994,VALID,23.1509,VALID,350,VALID,0.655469,
2015-01-07, 09:57:04,VALID,918.264,VALID,0,VALID,80.3965,VALID,360.358,VALID,23.1899,VALID,360,VALID,1.0625,
2015-01-07, 09:58:04,VALID,918.269,VALID,0,VALID,79.1768,VALID,342.308,VALID,23.2272,VALID,34,VALID,0.566406,
2015-01-07, 09:59:04,VALID,918.25,VALID,0,VALID,78.7651,VALID,330.382,VALID,23.4046,VALID,35,VALID,0,
2015-01-07, 10:00:04,VALID,918.258,VALID,0,VALID,78.1934,VALID,303.951,VALID,23.5803,VALID,9,VALID,0,
2015-01-07, 10:01:04,VALID,918.293,VALID,0,VALID,78.7728,VALID,308.034,VALID,23.7364,VALID,13,VALID,0,
2015-01-07, 10:02:04,VALID,918.303,VALID,0,VALID,79.375,VALID,290.736,VALID,23.8145,VALID,15,VALID,0.855859,
2015-01-07, 10:03:04,VALID,918.288,VALID,0,VALID,79.8095,VALID,311.794,VALID,23.8926,VALID,25,VALID,1.05039,
2015-01-07, 10:04:04,VALID,918.278,VALID,0,VALID,76.5086,VALID,338.977,VALID,23.9121,VALID,28,VALID,1.49102,
2015-01-07, 10:05:04,VALID,918.258,VALID,0,VALID,76.7983,VALID,337.473,VALID,23.8322,VALID,360,VALID,2.79648,
2015-01-07, 10:06:04,VALID,918.232,VALID,0,VALID,76.6001,VALID,332.745,VALID,23.6388,VALID,11,VALID,2.14687,
2015-01-07, 10:07:04,VALID,918.255,VALID,0,VALID,77.3319,VALID,331.886,VALID,23.4437,VALID,1,VALID,0.725,
2015-01-07, 10:08:04,VALID,918.301,VALID,0,VALID,78.5974,VALID,294.604,VALID,23.4241,VALID,29,VALID,0.612109,
2015-01-07, 10:09:04,VALID,918.306,VALID,0,VALID,79.5503,VALID,337.795,VALID,23.5235,VALID,37,VALID,0.0195313,
2015-01-07, 10:10:04,VALID,918.337,VALID,0,VALID,78.2315,VALID,407.202,VALID,23.5803,VALID,13,VALID,0.292188,
2015-01-07, 10:11:04,VALID,918.348,VALID,0,VALID,78.4297,VALID,416.872,VALID,23.6779,VALID,51,VALID,0,
2015-01-07, 10:12:04,VALID,918.368,VALID,0,VALID,78.1095,VALID,300.728,VALID,23.8554,VALID,352,VALID,0.0289063,
2015-01-07, 10:13:04,VALID,918.397,VALID,0,VALID,76.0512,VALID,295.893,VALID,23.9335,VALID,16,VALID,1.86445,
2015-01-07, 10:14:04,VALID,918.45,VALID,0,VALID,77.0194,VALID,461.137,VALID,23.7169,VALID,14,VALID,1.00664,
2015-01-07, 10:15:04,VALID,918.411,VALID,0,VALID,76.8517,VALID,497.667,VALID,23.756,VALID,8,VALID,1.81797,
2015-01-07, 10:16:04,VALID,918.463,VALID,0,VALID,77.0651,VALID,535.272,VALID,23.6974,VALID,6,VALID,0.669531,
2015-01-07, 10:17:04,VALID,918.439,VALID,0,VALID,79.1158,VALID,312.224,VALID,23.756,VALID,16,VALID,0.998047,
2015-01-07, 10:18:04,VALID,918.446,VALID,0,VALID,79.0853,VALID,301.802,VALID,23.7755,VALID,8,VALID,1.82617,
2015-01-07, 10:19:04,VALID,918.456,VALID,0,VALID,78.788,VALID,343.382,VALID,23.7755,VALID,36,VALID,2.38125,
2015-01-07, 10:20:04,VALID,918.467,VALID,0,VALID,78.3687,VALID,427.938,VALID,23.795,VALID,45,VALID,1.52852,
2015-01-07, 10:21:04,VALID,918.442,VALID,0,VALID,72.2547,VALID,439.112,VALID,23.6193,VALID,301,VALID,0.00585938,